sat.trackr.live / text

‹ back to catalog

COSMOS 2484 (RODNIK-S 6)

NORAD 39059 · 2013-001C

PAYLOAD ACTIVE UNKNOWN

§ Identity

Operator
Country
CIS
Launch date
2013-01-15
Launch site
PLMSC
Launch vehicle
Mass (kg)
RCS (m²)
1.47

External: N2YO · Heavens-Above · Gunter

§ Orbital elements

Epoch: 2026-09-20T05:00:52.886016Z

Period
115.85 min
Inclination
82.5056°
Eccentricity
0.0025457
Mean motion
12.42942714 rev/d
Perigee alt
1,474.1 km
Apogee alt
1,514.2 km
Semi-major
7,872.3 km
B*
3.3515e-4
RAAN
162.8325°
Arg perigee
184.3395°
Mean anomaly
175.7467°
Rev number
62,036

§ Raw data

COSMOS 2484 (RODNIK-S 6)1 39059U 13001C   26263.20894544  .00000056  00000+0  33515-3 0  99962 39059  82.5056 162.8325 0025457 184.3395 175.7467 12.42942714620367

JSON: /api/v1/satellites/39059 · /tle

For live sub-satellite position, see the globe view (requires WebGL).

§ Visibility from observer

Set your observer location to see the next 7 days of passes ≥ 10°. The values pass through the URL so the page stays shareable.

No JS? Fill the form by hand. The geolocation button needs JavaScript.

§ Radio — SatNOGS DB

ModeDescriptionDownlinkUplink
FM UHF Unknown 387.175 MHz
FM UHF Unknown 388.687 MHz

2 transmitters · refreshed weekly from db.satnogs.org